owner,sensor,date,latitude,longitude,vertical_datum,sea_water_temperature,qcFlag 
TABS,ioos:station:wmo:42050:1,2004-05-01T00:30:00Z,28.8425,-94.2433,-2.0,23.03,11111222 
TABS,ioos:station:wmo:42050:1,2004-05-01T01:00:00Z,28.8425,-94.2433,-2.0,23.2,11111222 
TABS,ioos:station:wmo:42050:1,2004-05-01T01:30:00Z,28.8425,-94.2433,-2.0,23.12,11111222 
TABS,ioos:station:wmo:42050:1,2004-05-01T02:00:00Z,28.8425,-94.2433,-2.0,22.93,11111222 
TABS,ioos:station:wmo:42050:1,2004-05-01T04:30:00Z,28.8425,-94.2433,-2.0,22.71,11111222 
TABS,ioos:station:wmo:42050:1,2004-05-01T05:00:00Z,28.8425,-94.2433,-2.0,22.7,11111222 
TABS,ioos:station:wmo:42050:1,2004-05-01T05:30:00Z,28.8425,-94.2433,-2.0,22.78,11111222 
TABS,ioos:station:wmo:42050:1,2004-05-01T06:00:00Z,28.8425,-94.2433,-2.0,22.75,11111222 
TABS,ioos:station:wmo:42050:1,2004-05-01T06:30:00Z,28.8425,-94.2433,-2.0,22.74,11111222 
TABS,ioos:station:wmo:42050:1,2004-05-01T07:00:00Z,28.8425,-94.2433,-2.0,22.75,11111222 
TABS,ioos:station:wmo:42050:1,2004-05-01T07:30:00Z,28.8425,-94.2433,-2.0,22.76,11111222 
TABS,ioos:station:wmo:42050:1,2004-05-01T08:00:00Z,28.8425,-94.2433,-2.0,22.79,11111222 
TABS,ioos:station:wmo:42050:1,2004-05-01T14:30:00Z,28.8425,-94.2433,-2.0,22.89,11111222 
TABS,ioos:station:wmo:42050:1,2004-05-01T15:00:00Z,28.8425,-94.2433,-2.0,22.86,11111222 
TABS,ioos:station:wmo:42050:1,2004-05-01T15:30:00Z,28.8425,-94.2433,-2.0,22.85,11111222 
TABS,ioos:station:wmo:42050:1,2004-05-01T16:00:00Z,28.8425,-94.2433,-2.0,22.86,11111222 
TABS,ioos:station:wmo:42050:1,2004-05-02T00:30:00Z,28.8425,-94.2433,-2.0,22.83,11111222 
TABS,ioos:station:wmo:42050:1,2004-05-02T01:00:00Z,28.8425,-94.2433,-2.0,22.82,11111222 
TABS,ioos:station:wmo:42050:1,2004-05-02T01:30:00Z,28.8425,-94.2433,-2.0,22.79,11111222 
TABS,ioos:station:wmo:42050:1,2004-05-02T02:00:00Z,28.8425,-94.2433,-2.0,22.83,11111222 
TABS,ioos:station:wmo:42050:1,2004-05-02T10:30:00Z,28.8425,-94.2433,-2.0,22.36,11111222 
TABS,ioos:station:wmo:42050:1,2004-05-02T11:00:00Z,28.8425,-94.2433,-2.0,22.36,11111222 
TABS,ioos:station:wmo:42050:1,2004-05-02T11:30:00Z,28.8425,-94.2433,-2.0,22.35,11111222 
TABS,ioos:station:wmo:42050:1,2004-05-02T12:00:00Z,28.8425,-94.2433,-2.0,22.34,11111222 
TABS,ioos:station:wmo:42050:1,2004-05-02T12:30:00Z,28.8425,-94.2433,-2.0,22.33,11111222 
TABS,ioos:station:wmo:42050:1,2004-05-02T13:00:00Z,28.8425,-94.2433,-2.0,22.3,11111222 
TABS,ioos:station:wmo:42050:1,2004-05-02T13:30:00Z,28.8425,-94.2433,-2.0,22.29,11111222 
TABS,ioos:station:wmo:42050:1,2004-05-02T14:00:00Z,28.8425,-94.2433,-2.0,22.28,11111222 
TABS,ioos:station:wmo:42050:1,2004-05-02T14:30:00Z,28.8425,-94.2433,-2.0,22.27,11111222 
TABS,ioos:station:wmo:42050:1,2004-05-02T15:00:00Z,28.8425,-94.2433,-2.0,22.25,11111222 
TABS,ioos:station:wmo:42050:1,2004-05-02T15:30:00Z,28.8425,-94.2433,-2.0,22.24,11111222 
TABS,ioos:station:wmo:42050:1,2004-05-02T16:00:00Z,28.8425,-94.2433,-2.0,22.24,11111222 
TABS,ioos:station:wmo:42050:1,2004-05-02T20:30:00Z,28.8425,-94.2433,-2.0,22.21,11111222 
TABS,ioos:station:wmo:42050:1,2004-05-02T21:00:00Z,28.8425,-94.2433,-2.0,22.24,11111222 
TABS,ioos:station:wmo:42050:1,2004-05-02T21:30:00Z,28.8425,-94.2433,-2.0,22.25,11111222 
TABS,ioos:station:wmo:42050:1,2004-05-02T22:00:00Z,28.8425,-94.2433,-2.0,22.29,11111222 
TABS,ioos:station:wmo:42050:1,2004-05-03T00:30:00Z,28.8425,-94.2433,-2.0,22.3,11111222 
TABS,ioos:station:wmo:42050:1,2004-05-03T01:00:00Z,28.8425,-94.2433,-2.0,22.29,11111222 
TABS,ioos:station:wmo:42050:1,2004-05-03T01:30:00Z,28.8425,-94.2433,-2.0,22.28,11111222 
TABS,ioos:station:wmo:42050:1,2004-05-03T02:00:00Z,28.8425,-94.2433,-2.0,22.25,11111222 
TABS,ioos:station:wmo:42050:1,2004-05-03T08:30:00Z,28.8425,-94.2433,-2.0,21.99,11111222 
TABS,ioos:station:wmo:42050:1,2004-05-03T09:00:00Z,28.8425,-94.2433,-2.0,22.0,11111222 
TABS,ioos:station:wmo:42050:1,2004-05-03T09:30:00Z,28.8425,-94.2433,-2.0,21.97,11111222 
TABS,ioos:station:wmo:42050:1,2004-05-03T10:00:00Z,28.8425,-94.2433,-2.0,21.97,11111222 
TABS,ioos:station:wmo:42050:1,2004-05-03T10:30:00Z,28.8425,-94.2433,-2.0,21.96,11111222 
TABS,ioos:station:wmo:42050:1,2004-05-03T11:00:00Z,28.8425,-94.2433,-2.0,21.96,11111222 
TABS,ioos:station:wmo:42050:1,2004-05-03T11:30:00Z,28.8425,-94.2433,-2.0,21.91,11111222 
TABS,ioos:station:wmo:42050:1,2004-05-03T12:00:00Z,28.8425,-94.2433,-2.0,21.86,11111222 
TABS,ioos:station:wmo:42050:1,2004-05-03T14:30:00Z,28.8425,-94.2433,-2.0,21.97,11111222 
TABS,ioos:station:wmo:42050:1,2004-05-03T15:00:00Z,28.8425,-94.2433,-2.0,22.05,11111222 
TABS,ioos:station:wmo:42050:1,2004-05-03T15:30:00Z,28.8425,-94.2433,-2.0,22.01,11111222 
TABS,ioos:station:wmo:42050:1,2004-05-03T16:00:00Z,28.8425,-94.2433,-2.0,22.02,11111222 
TABS,ioos:station:wmo:42050:1,2004-05-03T16:30:00Z,28.8425,-94.2433,-2.0,22.05,11111222 
TABS,ioos:station:wmo:42050:1,2004-05-03T17:00:00Z,28.8425,-94.2433,-2.0,22.12,11111222 
TABS,ioos:station:wmo:42050:1,2004-05-03T17:30:00Z,28.8425,-94.2433,-2.0,22.17,11111222 
TABS,ioos:station:wmo:42050:1,2004-05-03T18:00:00Z,28.8425,-94.2433,-2.0,22.26,11111222 
TABS,ioos:station:wmo:42050:1,2004-05-03T18:30:00Z,28.8425,-94.2433,-2.0,22.3,11111222 
TABS,ioos:station:wmo:42050:1,2004-05-03T19:00:00Z,28.8425,-94.2433,-2.0,22.4,11111222 
TABS,ioos:station:wmo:42050:1,2004-05-03T19:30:00Z,28.8425,-94.2433,-2.0,22.53,11111222 
TABS,ioos:station:wmo:42050:1,2004-05-03T20:00:00Z,28.8425,-94.2433,-2.0,22.52,11111222 
TABS,ioos:station:wmo:42050:1,2004-05-03T20:30:00Z,28.8425,-94.2433,-2.0,22.71,11111222 
TABS,ioos:station:wmo:42050:1,2004-05-03T21:00:00Z,28.8425,-94.2433,-2.0,22.68,11111222 
TABS,ioos:station:wmo:42050:1,2004-05-03T21:30:00Z,28.8425,-94.2433,-2.0,22.82,11111222 
TABS,ioos:station:wmo:42050:1,2004-05-03T22:00:00Z,28.8425,-94.2433,-2.0,22.85,11111222 
TABS,ioos:station:wmo:42050:1,2004-05-04T00:30:00Z,28.8425,-94.2433,-2.0,22.84,11111222 
TABS,ioos:station:wmo:42050:1,2004-05-04T01:00:00Z,28.8425,-94.2433,-2.0,22.82,11111222 
TABS,ioos:station:wmo:42050:1,2004-05-04T01:30:00Z,28.8425,-94.2433,-2.0,22.82,11111222 
TABS,ioos:station:wmo:42050:1,2004-05-04T02:00:00Z,28.8425,-94.2433,-2.0,22.79,11111222 
TABS,ioos:station:wmo:42050:1,2004-05-04T02:30:00Z,28.8425,-94.2433,-2.0,22.75,11111222 
TABS,ioos:station:wmo:42050:1,2004-05-04T03:00:00Z,28.8425,-94.2433,-2.0,22.73,11111222 
TABS,ioos:station:wmo:42050:1,2004-05-04T03:30:00Z,28.8425,-94.2433,-2.0,22.73,11111222 
TABS,ioos:station:wmo:42050:1,2004-05-04T04:00:00Z,28.8425,-94.2433,-2.0,22.74,11111222 
TABS,ioos:station:wmo:42050:1,2004-05-04T04:30:00Z,28.8425,-94.2433,-2.0,22.7,11111222 
TABS,ioos:station:wmo:42050:1,2004-05-04T05:00:00Z,28.8425,-94.2433,-2.0,22.62,11111222 
TABS,ioos:station:wmo:42050:1,2004-05-04T05:30:00Z,28.8425,-94.2433,-2.0,22.54,11111222 
TABS,ioos:station:wmo:42050:1,2004-05-04T06:00:00Z,28.8425,-94.2433,-2.0,22.44,11111222 
TABS,ioos:station:wmo:42050:1,2004-05-04T08:30:00Z,28.8425,-94.2433,-2.0,22.34,11111222 
TABS,ioos:station:wmo:42050:1,2004-05-04T09:00:00Z,28.8425,-94.2433,-2.0,22.28,11111222 
TABS,ioos:station:wmo:42050:1,2004-05-04T09:30:00Z,28.8425,-94.2433,-2.0,22.23,11111222 
TABS,ioos:station:wmo:42050:1,2004-05-04T10:00:00Z,28.8425,-94.2433,-2.0,22.24,11111222 
TABS,ioos:station:wmo:42050:1,2004-05-04T10:30:00Z,28.8425,-94.2433,-2.0,22.22,11111222 
TABS,ioos:station:wmo:42050:1,2004-05-04T11:00:00Z,28.8425,-94.2433,-2.0,22.2,11111222 
TABS,ioos:station:wmo:42050:1,2004-05-04T11:30:00Z,28.8425,-94.2433,-2.0,22.16,11111222 
TABS,ioos:station:wmo:42050:1,2004-05-04T12:00:00Z,28.8425,-94.2433,-2.0,22.19,11111222 
TABS,ioos:station:wmo:42050:1,2004-05-04T12:30:00Z,28.8425,-94.2433,-2.0,22.21,11111222 
TABS,ioos:station:wmo:42050:1,2004-05-04T13:00:00Z,28.8425,-94.2433,-2.0,22.22,11111222 
TABS,ioos:station:wmo:42050:1,2004-05-04T13:30:00Z,28.8425,-94.2433,-2.0,22.24,11111222 
TABS,ioos:station:wmo:42050:1,2004-05-04T14:00:00Z,28.8425,-94.2433,-2.0,22.3,11111222 
TABS,ioos:station:wmo:42050:1,2004-05-04T16:30:00Z,28.8425,-94.2433,-2.0,22.61,11111222 
TABS,ioos:station:wmo:42050:1,2004-05-04T17:00:00Z,28.8425,-94.2433,-2.0,22.64,11111222 
TABS,ioos:station:wmo:42050:1,2004-05-04T17:30:00Z,28.8425,-94.2433,-2.0,22.67,11111222 
TABS,ioos:station:wmo:42050:1,2004-05-04T18:00:00Z,28.8425,-94.2433,-2.0,22.74,11111222 
TABS,ioos:station:wmo:42050:1,2004-05-05T00:30:00Z,28.8425,-94.2433,-2.0,23.07,11111222 
TABS,ioos:station:wmo:42050:1,2004-05-05T01:00:00Z,28.8425,-94.2433,-2.0,23.2,11111222 
TABS,ioos:station:wmo:42050:1,2004-05-05T01:30:00Z,28.8425,-94.2433,-2.0,23.09,11111222 
TABS,ioos:station:wmo:42050:1,2004-05-05T02:00:00Z,28.8425,-94.2433,-2.0,23.06,11111222 
TABS,ioos:station:wmo:42050:1,2004-05-05T04:30:00Z,28.8425,-94.2433,-2.0,22.88,11111222 
TABS,ioos:station:wmo:42050:1,2004-05-05T05:00:00Z,28.8425,-94.2433,-2.0,22.8,11111222 
TABS,ioos:station:wmo:42050:1,2004-05-05T05:30:00Z,28.8425,-94.2433,-2.0,22.75,11111222 
TABS,ioos:station:wmo:42050:1,2004-05-05T06:00:00Z,28.8425,-94.2433,-2.0,22.73,11111222 
TABS,ioos:station:wmo:42050:1,2004-05-05T06:30:00Z,28.8425,-94.2433,-2.0,22.85,11111222 
TABS,ioos:station:wmo:42050:1,2004-05-05T07:00:00Z,28.8425,-94.2433,-2.0,22.84,11111222 
TABS,ioos:station:wmo:42050:1,2004-05-05T07:30:00Z,28.8425,-94.2433,-2.0,22.7,11111222 
TABS,ioos:station:wmo:42050:1,2004-05-05T08:00:00Z,28.8425,-94.2433,-2.0,22.67,11111222 
TABS,ioos:station:wmo:42050:1,2004-05-05T08:30:00Z,28.8425,-94.2433,-2.0,22.64,11111222 
TABS,ioos:station:wmo:42050:1,2004-05-05T09:00:00Z,28.8425,-94.2433,-2.0,22.6,11111222 
TABS,ioos:station:wmo:42050:1,2004-05-05T09:30:00Z,28.8425,-94.2433,-2.0,22.53,11111222 
TABS,ioos:station:wmo:42050:1,2004-05-05T10:00:00Z,28.8425,-94.2433,-2.0,22.5,11111222 
TABS,ioos:station:wmo:42050:1,2004-05-05T10:30:00Z,28.8425,-94.2433,-2.0,22.49,11111222 
TABS,ioos:station:wmo:42050:1,2004-05-05T11:00:00Z,28.8425,-94.2433,-2.0,22.47,11111222 
TABS,ioos:station:wmo:42050:1,2004-05-05T11:30:00Z,28.8425,-94.2433,-2.0,22.47,11111222 
TABS,ioos:station:wmo:42050:1,2004-05-05T12:00:00Z,28.8425,-94.2433,-2.0,22.44,11111222 
TABS,ioos:station:wmo:42050:1,2004-05-05T12:30:00Z,28.8425,-94.2433,-2.0,22.42,11111222 
TABS,ioos:station:wmo:42050:1,2004-05-05T13:00:00Z,28.8425,-94.2433,-2.0,22.41,11111222 
TABS,ioos:station:wmo:42050:1,2004-05-05T13:30:00Z,28.8425,-94.2433,-2.0,22.44,11111222 
TABS,ioos:station:wmo:42050:1,2004-05-05T14:00:00Z,28.8425,-94.2433,-2.0,22.47,11111222 
TABS,ioos:station:wmo:42050:1,2004-05-05T14:30:00Z,28.8425,-94.2433,-2.0,22.48,11111222 
TABS,ioos:station:wmo:42050:1,2004-05-05T15:00:00Z,28.8425,-94.2433,-2.0,22.51,11111222 
TABS,ioos:station:wmo:42050:1,2004-05-05T15:30:00Z,28.8425,-94.2433,-2.0,22.56,11111222 
TABS,ioos:station:wmo:42050:1,2004-05-05T16:00:00Z,28.8425,-94.2433,-2.0,22.6,11111222 
TABS,ioos:station:wmo:42050:1,2004-05-05T16:30:00Z,28.8425,-94.2433,-2.0,22.64,11111222 
TABS,ioos:station:wmo:42050:1,2004-05-05T17:00:00Z,28.8425,-94.2433,-2.0,22.74,11111222 
TABS,ioos:station:wmo:42050:1,2004-05-05T17:30:00Z,28.8425,-94.2433,-2.0,22.73,11111222 
TABS,ioos:station:wmo:42050:1,2004-05-05T18:00:00Z,28.8425,-94.2433,-2.0,22.88,11111222 
TABS,ioos:station:wmo:42050:1,2004-05-05T18:30:00Z,28.8425,-94.2433,-2.0,22.93,11111222 
TABS,ioos:station:wmo:42050:1,2004-05-05T19:00:00Z,28.8425,-94.2433,-2.0,22.98,11111222 
TABS,ioos:station:wmo:42050:1,2004-05-05T19:30:00Z,28.8425,-94.2433,-2.0,23.08,11111222 
TABS,ioos:station:wmo:42050:1,2004-05-05T20:00:00Z,28.8425,-94.2433,-2.0,23.14,11111222 
TABS,ioos:station:wmo:42050:1,2004-05-05T23:00:00Z,28.8425,-94.2433,-2.0,23.25,11111222 
TABS,ioos:station:wmo:42050:1,2004-05-05T23:30:00Z,28.8425,-94.2433,-2.0,23.2,11111222 
TABS,ioos:station:wmo:42050:1,2004-05-06T00:00:00Z,28.8425,-94.2433,-2.0,23.09,11111222 
TABS,ioos:station:wmo:42050:1,2004-05-06T00:30:00Z,28.8425,-94.2433,-2.0,23.06,11111222 
TABS,ioos:station:wmo:42050:1,2004-05-06T01:00:00Z,28.8425,-94.2433,-2.0,23.05,11111222 
TABS,ioos:station:wmo:42050:1,2004-05-06T01:30:00Z,28.8425,-94.2433,-2.0,23.02,11111222 
TABS,ioos:station:wmo:42050:1,2004-05-06T02:00:00Z,28.8425,-94.2433,-2.0,22.99,11111222 
TABS,ioos:station:wmo:42050:1,2004-05-06T06:30:00Z,28.8425,-94.2433,-2.0,22.7,11111222 
TABS,ioos:station:wmo:42050:1,2004-05-06T07:00:00Z,28.8425,-94.2433,-2.0,22.74,11111222 
TABS,ioos:station:wmo:42050:1,2004-05-06T07:30:00Z,28.8425,-94.2433,-2.0,22.78,11111222 
TABS,ioos:station:wmo:42050:1,2004-05-06T08:00:00Z,28.8425,-94.2433,-2.0,22.78,11111222 
TABS,ioos:station:wmo:42050:1,2004-05-06T08:30:00Z,28.8425,-94.2433,-2.0,22.79,11111222 
TABS,ioos:station:wmo:42050:1,2004-05-06T09:00:00Z,28.8425,-94.2433,-2.0,22.8,11111222 
TABS,ioos:station:wmo:42050:1,2004-05-06T09:30:00Z,28.8425,-94.2433,-2.0,22.78,11111222 
TABS,ioos:station:wmo:42050:1,2004-05-06T10:00:00Z,28.8425,-94.2433,-2.0,22.77,11111222 
TABS,ioos:station:wmo:42050:1,2004-05-06T12:30:00Z,28.8425,-94.2433,-2.0,22.66,11111222 
TABS,ioos:station:wmo:42050:1,2004-05-06T13:00:00Z,28.8425,-94.2433,-2.0,22.66,11111222 
TABS,ioos:station:wmo:42050:1,2004-05-06T13:30:00Z,28.8425,-94.2433,-2.0,22.67,11111222 
TABS,ioos:station:wmo:42050:1,2004-05-06T14:00:00Z,28.8425,-94.2433,-2.0,22.69,11111222 
TABS,ioos:station:wmo:42050:1,2004-05-06T14:30:00Z,28.8425,-94.2433,-2.0,22.7,11111222 
TABS,ioos:station:wmo:42050:1,2004-05-06T15:00:00Z,28.8425,-94.2433,-2.0,22.73,11111222 
TABS,ioos:station:wmo:42050:1,2004-05-06T15:30:00Z,28.8425,-94.2433,-2.0,22.76,11111222 
TABS,ioos:station:wmo:42050:1,2004-05-06T16:00:00Z,28.8425,-94.2433,-2.0,22.81,11111222 
TABS,ioos:station:wmo:42050:1,2004-05-06T18:30:00Z,28.8425,-94.2433,-2.0,23.08,11111222 
TABS,ioos:station:wmo:42050:1,2004-05-06T19:00:00Z,28.8425,-94.2433,-2.0,23.1,11111222 
TABS,ioos:station:wmo:42050:1,2004-05-06T19:30:00Z,28.8425,-94.2433,-2.0,23.13,11111222 
TABS,ioos:station:wmo:42050:1,2004-05-06T20:00:00Z,28.8425,-94.2433,-2.0,23.22,11111222 
TABS,ioos:station:wmo:42050:1,2004-05-06T20:30:00Z,28.8425,-94.2433,-2.0,23.19,11111222 
TABS,ioos:station:wmo:42050:1,2004-05-06T21:00:00Z,28.8425,-94.2433,-2.0,23.21,11111222 
TABS,ioos:station:wmo:42050:1,2004-05-06T21:30:00Z,28.8425,-94.2433,-2.0,23.26,11111222 
TABS,ioos:station:wmo:42050:1,2004-05-06T22:00:00Z,28.8425,-94.2433,-2.0,23.24,11111222 
TABS,ioos:station:wmo:42050:1,2004-05-06T22:30:00Z,28.8425,-94.2433,-2.0,23.23,11111222 
TABS,ioos:station:wmo:42050:1,2004-05-06T23:00:00Z,28.8425,-94.2433,-2.0,23.18,11111222 
TABS,ioos:station:wmo:42050:1,2004-05-06T23:30:00Z,28.8425,-94.2433,-2.0,23.16,11111222 
TABS,ioos:station:wmo:42050:1,2004-05-07T00:00:00Z,28.8425,-94.2433,-2.0,23.14,11111222 
TABS,ioos:station:wmo:42050:1,2004-05-07T02:30:00Z,28.8425,-94.2433,-2.0,22.99,11111222 
TABS,ioos:station:wmo:42050:1,2004-05-07T03:00:00Z,28.8425,-94.2433,-2.0,22.96,11111222 
TABS,ioos:station:wmo:42050:1,2004-05-07T03:30:00Z,28.8425,-94.2433,-2.0,22.96,11111222 
TABS,ioos:station:wmo:42050:1,2004-05-07T04:00:00Z,28.8425,-94.2433,-2.0,22.96,11111222 
TABS,ioos:station:wmo:42050:1,2004-05-07T04:30:00Z,28.8425,-94.2433,-2.0,22.96,11111222 
TABS,ioos:station:wmo:42050:1,2004-05-07T05:00:00Z,28.8425,-94.2433,-2.0,22.96,11111222 
TABS,ioos:station:wmo:42050:1,2004-05-07T05:30:00Z,28.8425,-94.2433,-2.0,22.97,11111222 
TABS,ioos:station:wmo:42050:1,2004-05-07T06:00:00Z,28.8425,-94.2433,-2.0,22.99,11111222 
TABS,ioos:station:wmo:42050:1,2004-05-07T06:30:00Z,28.8425,-94.2433,-2.0,22.98,11111222 
TABS,ioos:station:wmo:42050:1,2004-05-07T07:00:00Z,28.8425,-94.2433,-2.0,22.98,11111222 
TABS,ioos:station:wmo:42050:1,2004-05-07T07:30:00Z,28.8425,-94.2433,-2.0,22.97,11111222 
TABS,ioos:station:wmo:42050:1,2004-05-07T08:00:00Z,28.8425,-94.2433,-2.0,22.98,11111222 
TABS,ioos:station:wmo:42050:1,2004-05-07T14:30:00Z,28.8425,-94.2433,-2.0,23.04,11111222 
TABS,ioos:station:wmo:42050:1,2004-05-07T15:00:00Z,28.8425,-94.2433,-2.0,23.06,11111222 
TABS,ioos:station:wmo:42050:1,2004-05-07T15:30:00Z,28.8425,-94.2433,-2.0,23.09,11111222 
TABS,ioos:station:wmo:42050:1,2004-05-07T16:00:00Z,28.8425,-94.2433,-2.0,23.11,11111222 
TABS,ioos:station:wmo:42050:1,2004-05-07T18:30:00Z,28.8425,-94.2433,-2.0,23.24,11111222 
TABS,ioos:station:wmo:42050:1,2004-05-07T19:00:00Z,28.8425,-94.2433,-2.0,23.23,11111222 
TABS,ioos:station:wmo:42050:1,2004-05-07T19:30:00Z,28.8425,-94.2433,-2.0,23.25,11111222 
TABS,ioos:station:wmo:42050:1,2004-05-07T20:00:00Z,28.8425,-94.2433,-2.0,23.28,11111222 
TABS,ioos:station:wmo:42050:1,2004-05-08T02:30:00Z,28.8425,-94.2433,-2.0,23.25,11111222 
TABS,ioos:station:wmo:42050:1,2004-05-08T03:00:00Z,28.8425,-94.2433,-2.0,23.23,11111222 
TABS,ioos:station:wmo:42050:1,2004-05-08T03:30:00Z,28.8425,-94.2433,-2.0,23.22,11111222 
TABS,ioos:station:wmo:42050:1,2004-05-08T04:00:00Z,28.8425,-94.2433,-2.0,23.21,11111222 
TABS,ioos:station:wmo:42050:1,2004-05-08T04:30:00Z,28.8425,-94.2433,-2.0,23.28,11111222 
TABS,ioos:station:wmo:42050:1,2004-05-08T05:00:00Z,28.8425,-94.2433,-2.0,23.27,11111222 
TABS,ioos:station:wmo:42050:1,2004-05-08T05:30:00Z,28.8425,-94.2433,-2.0,23.22,11111222 
TABS,ioos:station:wmo:42050:1,2004-05-08T06:00:00Z,28.8425,-94.2433,-2.0,23.19,11111222 
TABS,ioos:station:wmo:42050:1,2004-05-08T06:30:00Z,28.8425,-94.2433,-2.0,23.2,11111222 
TABS,ioos:station:wmo:42050:1,2004-05-08T07:00:00Z,28.8425,-94.2433,-2.0,23.26,11111222 
TABS,ioos:station:wmo:42050:1,2004-05-08T07:30:00Z,28.8425,-94.2433,-2.0,23.21,11111222 
TABS,ioos:station:wmo:42050:1,2004-05-08T08:00:00Z,28.8425,-94.2433,-2.0,23.13,11111222 
TABS,ioos:station:wmo:42050:1,2004-05-08T10:30:00Z,28.8425,-94.2433,-2.0,23.13,11111222 
TABS,ioos:station:wmo:42050:1,2004-05-08T11:00:00Z,28.8425,-94.2433,-2.0,23.13,11111222 
TABS,ioos:station:wmo:42050:1,2004-05-08T11:30:00Z,28.8425,-94.2433,-2.0,23.1,11111222 
TABS,ioos:station:wmo:42050:1,2004-05-08T12:00:00Z,28.8425,-94.2433,-2.0,23.08,11111222 
TABS,ioos:station:wmo:42050:1,2004-05-08T12:30:00Z,28.8425,-94.2433,-2.0,23.09,11111222 
TABS,ioos:station:wmo:42050:1,2004-05-08T13:00:00Z,28.8425,-94.2433,-2.0,23.11,11111222 
TABS,ioos:station:wmo:42050:1,2004-05-08T13:30:00Z,28.8425,-94.2433,-2.0,23.19,11111222 
TABS,ioos:station:wmo:42050:1,2004-05-08T14:00:00Z,28.8425,-94.2433,-2.0,23.31,11111222 
TABS,ioos:station:wmo:42050:1,2004-05-08T14:30:00Z,28.8425,-94.2433,-2.0,23.39,11111222 
TABS,ioos:station:wmo:42050:1,2004-05-08T15:00:00Z,28.8425,-94.2433,-2.0,23.47,11111222 
TABS,ioos:station:wmo:42050:1,2004-05-08T15:30:00Z,28.8425,-94.2433,-2.0,23.36,11111222 
TABS,ioos:station:wmo:42050:1,2004-05-08T16:00:00Z,28.8425,-94.2433,-2.0,23.32,11111222 
TABS,ioos:station:wmo:42050:1,2004-05-08T20:30:00Z,28.8425,-94.2433,-2.0,23.78,11111222 
TABS,ioos:station:wmo:42050:1,2004-05-08T21:00:00Z,28.8425,-94.2433,-2.0,23.48,11111222 
TABS,ioos:station:wmo:42050:1,2004-05-08T21:30:00Z,28.8425,-94.2433,-2.0,23.39,11111222 
TABS,ioos:station:wmo:42050:1,2004-05-08T22:00:00Z,28.8425,-94.2433,-2.0,23.35,11111222 
TABS,ioos:station:wmo:42050:1,2004-05-09T00:30:00Z,28.8425,-94.2433,-2.0,23.45,11111222 
TABS,ioos:station:wmo:42050:1,2004-05-09T01:00:00Z,28.8425,-94.2433,-2.0,23.45,11111222 
TABS,ioos:station:wmo:42050:1,2004-05-09T01:30:00Z,28.8425,-94.2433,-2.0,23.44,11111222 
TABS,ioos:station:wmo:42050:1,2004-05-09T02:00:00Z,28.8425,-94.2433,-2.0,23.43,11111222 
TABS,ioos:station:wmo:42050:1,2004-05-09T02:30:00Z,28.8425,-94.2433,-2.0,23.43,11111222 
TABS,ioos:station:wmo:42050:1,2004-05-09T03:00:00Z,28.8425,-94.2433,-2.0,23.43,11111222 
TABS,ioos:station:wmo:42050:1,2004-05-09T03:30:00Z,28.8425,-94.2433,-2.0,23.38,11111222 
TABS,ioos:station:wmo:42050:1,2004-05-09T04:00:00Z,28.8425,-94.2433,-2.0,23.33,11111222 
TABS,ioos:station:wmo:42050:1,2004-05-09T06:30:00Z,28.8425,-94.2433,-2.0,23.31,11111222 
TABS,ioos:station:wmo:42050:1,2004-05-09T07:00:00Z,28.8425,-94.2433,-2.0,23.28,11111222 
TABS,ioos:station:wmo:42050:1,2004-05-09T10:30:00Z,28.8425,-94.2433,-2.0,23.22,11111222 
TABS,ioos:station:wmo:42050:1,2004-05-09T14:30:00Z,28.8425,-94.2433,-2.0,23.65,11111222 
TABS,ioos:station:wmo:42050:1,2004-05-09T15:00:00Z,28.8425,-94.2433,-2.0,23.66,11111222 
TABS,ioos:station:wmo:42050:1,2004-05-09T15:30:00Z,28.8425,-94.2433,-2.0,23.69,11111222 
TABS,ioos:station:wmo:42050:1,2004-05-09T16:00:00Z,28.8425,-94.2433,-2.0,23.77,11111222 
TABS,ioos:station:wmo:42050:1,2004-05-09T20:30:00Z,28.8425,-94.2433,-2.0,23.69,11111222 
TABS,ioos:station:wmo:42050:1,2004-05-09T21:00:00Z,28.8425,-94.2433,-2.0,23.73,11111222 
TABS,ioos:station:wmo:42050:1,2004-05-09T21:30:00Z,28.8425,-94.2433,-2.0,23.76,11111222 
TABS,ioos:station:wmo:42050:1,2004-05-09T22:00:00Z,28.8425,-94.2433,-2.0,23.72,11111222 
TABS,ioos:station:wmo:42050:1,2004-05-09T22:30:00Z,28.8425,-94.2433,-2.0,23.69,11111222 
TABS,ioos:station:wmo:42050:1,2004-05-09T23:00:00Z,28.8425,-94.2433,-2.0,23.68,11111222 
TABS,ioos:station:wmo:42050:1,2004-05-09T23:30:00Z,28.8425,-94.2433,-2.0,23.69,11111222 
TABS,ioos:station:wmo:42050:1,2004-05-10T00:00:00Z,28.8425,-94.2433,-2.0,23.66,11111222 
TABS,ioos:station:wmo:42050:1,2004-05-10T04:30:00Z,28.8425,-94.2433,-2.0,23.56,11111222 
TABS,ioos:station:wmo:42050:1,2004-05-10T05:00:00Z,28.8425,-94.2433,-2.0,23.59,11111222 
TABS,ioos:station:wmo:42050:1,2004-05-10T05:30:00Z,28.8425,-94.2433,-2.0,23.61,11111222 
TABS,ioos:station:wmo:42050:1,2004-05-10T06:00:00Z,28.8425,-94.2433,-2.0,23.59,11111222 
TABS,ioos:station:wmo:42050:1,2004-05-10T08:30:00Z,28.8425,-94.2433,-2.0,23.53,11111222 
TABS,ioos:station:wmo:42050:1,2004-05-10T09:00:00Z,28.8425,-94.2433,-2.0,23.54,11111222 
TABS,ioos:station:wmo:42050:1,2004-05-10T09:30:00Z,28.8425,-94.2433,-2.0,23.55,11111222 
TABS,ioos:station:wmo:42050:1,2004-05-10T10:00:00Z,28.8425,-94.2433,-2.0,23.54,11111222 
TABS,ioos:station:wmo:42050:1,2004-05-10T14:30:00Z,28.8425,-94.2433,-2.0,23.55,11111222 
TABS,ioos:station:wmo:42050:1,2004-05-10T15:00:00Z,28.8425,-94.2433,-2.0,23.59,11111222 
TABS,ioos:station:wmo:42050:1,2004-05-10T15:30:00Z,28.8425,-94.2433,-2.0,23.63,11111222 
TABS,ioos:station:wmo:42050:1,2004-05-10T16:00:00Z,28.8425,-94.2433,-2.0,23.69,11111222 
TABS,ioos:station:wmo:42050:1,2004-05-10T20:30:00Z,28.8425,-94.2433,-2.0,23.88,11111222 
TABS,ioos:station:wmo:42050:1,2004-05-10T21:00:00Z,28.8425,-94.2433,-2.0,23.8,11111222 
TABS,ioos:station:wmo:42050:1,2004-05-10T21:30:00Z,28.8425,-94.2433,-2.0,23.84,11111222 
TABS,ioos:station:wmo:42050:1,2004-05-10T22:00:00Z,28.8425,-94.2433,-2.0,24.02,11111222 
TABS,ioos:station:wmo:42050:1,2004-05-10T22:30:00Z,28.8425,-94.2433,-2.0,23.76,11111222 
TABS,ioos:station:wmo:42050:1,2004-05-10T23:00:00Z,28.8425,-94.2433,-2.0,23.71,11111222 
TABS,ioos:station:wmo:42050:1,2004-05-10T23:30:00Z,28.8425,-94.2433,-2.0,23.71,11111222 
TABS,ioos:station:wmo:42050:1,2004-05-11T00:00:00Z,28.8425,-94.2433,-2.0,23.73,11111222 
TABS,ioos:station:wmo:42050:1,2004-05-11T04:30:00Z,28.8425,-94.2433,-2.0,23.83,11111222 
TABS,ioos:station:wmo:42050:1,2004-05-11T05:00:00Z,28.8425,-94.2433,-2.0,23.84,11111222 
TABS,ioos:station:wmo:42050:1,2004-05-11T05:30:00Z,28.8425,-94.2433,-2.0,23.84,11111222 
TABS,ioos:station:wmo:42050:1,2004-05-11T06:00:00Z,28.8425,-94.2433,-2.0,23.83,11111222 
TABS,ioos:station:wmo:42050:1,2004-05-11T06:30:00Z,28.8425,-94.2433,-2.0,23.82,11111222 
TABS,ioos:station:wmo:42050:1,2004-05-11T07:00:00Z,28.8425,-94.2433,-2.0,23.82,11111222 
TABS,ioos:station:wmo:42050:1,2004-05-11T07:30:00Z,28.8425,-94.2433,-2.0,23.82,11111222 
TABS,ioos:station:wmo:42050:1,2004-05-11T08:00:00Z,28.8425,-94.2433,-2.0,23.81,11111222 
TABS,ioos:station:wmo:42050:1,2004-05-11T08:30:00Z,28.8425,-94.2433,-2.0,23.77,11111222 
TABS,ioos:station:wmo:42050:1,2004-05-11T09:00:00Z,28.8425,-94.2433,-2.0,23.79,11111222 
TABS,ioos:station:wmo:42050:1,2004-05-11T09:30:00Z,28.8425,-94.2433,-2.0,23.81,11111222 
TABS,ioos:station:wmo:42050:1,2004-05-11T10:00:00Z,28.8425,-94.2433,-2.0,23.81,11111222 
TABS,ioos:station:wmo:42050:1,2004-05-11T12:30:00Z,28.8425,-94.2433,-2.0,23.89,11111222 
TABS,ioos:station:wmo:42050:1,2004-05-11T13:00:00Z,28.8425,-94.2433,-2.0,23.88,11111222 
TABS,ioos:station:wmo:42050:1,2004-05-11T13:30:00Z,28.8425,-94.2433,-2.0,23.91,11111222 